THORAD AGENA D DEB, 4822

Orbit data source: Space-Track

THORAD AGENA D DEB, 4822 is space debris in SSO originally from a launch on Wed, 08 Apr 1970 UTC launched from the Air Force Western Test Range (AFWTR). Debris objects in space refer to the collection of defunct objects orbiting the Earth. Examples of debris include non-operational satellites, rocket bodies, and fragments generated from explosions, collisions, or faulty payload assembly.

Loading next visibility...
Identifier
4822, 1970-025ED
Orbit
SSO
Country
Flag of USUS
Related business
Manufacturer
Unknown
Mission
Spacecraft
Bus & Motor
Unknown
Mass
Unknown
Launch date (UTC)
1970-04-08 (56 years ago)
Launch vehicle
Unknown
Launch site
Air Force Western Test Range (AFWTR)
Object type
Payload
Rocket body
Debris
Shape & HBR
Unknown shape, 0.1 m
Radar Cross Section
Medium (>0.1 m² and <1 m²)

Expand to show TLE details & history
Last TLE update: 19 hours ago

TLE from 19 hours ago
0 THORAD AGENA D DEB
1 04822U 70025ED  25340.99846085  .00007763  00000-0  37442-2 0  9998
2 04822  99.3846 137.5118 0052011 280.0392  79.4915 14.18228682763335
Epoch: 2025-12-06T23:57Z
TLE epoch observation values (Epoch: 2025-12-06T23:57:47.017Z)
Latitude
-0.00003°
Longitude
62.04774°
Altitude
827.588 km
Speed
7.443 km/s
True Right ascension
09h 10m 02s
True Declination
0° 00' 00"
Sunlit
Object was in daylight at epoch
Visualization orbit readout
Latitude
Unknown
Longitude
Unknown
Altitude
Unknown
Speed
Unknown
Apparent Right ascension
Unknown
Apparent Declination
Unknown
Sunlit
N/A
Visualization observer readout
Local Sidereal Time
17:20:27
Azimuth
Unknown
Elevation
Unknown
Doppler factor
Unknown
Orbital elements
Apogee altitude
866.027 km
Perigee altitude
791.061 km
Semi-major axis
7,206.681 km
Eccentricity
0.0052
Inclination
99.3846°
RAAN
137.5118°
Arg. of periapsis
280.0392°
True anomaly
80.07819°
Mean anomaly
79.4915°
Eccentric anomaly
79.78478°
Mean motion
3.54765 °/min
Orbital period
101.48 mins
BSTAR
0.0037442
Loading maneuver chart data...
Computing Atmospheric mass density...

Documentation

Showing up to 5 results
|